Terminal Aerodrome Forecast
Issued by NWS North Platte, NE

Home | Current Version | Previous Version | Text Only | Print | Product List | Glossary On
Versions: 1 2 3 4 5 6 7 8 9 10 11 12 13 14 15 16 17 18 19
000
FTUS43 KLBF 051000 AAB
TAFVTN
TAF AMD
KVTN 051014Z 0510/0606 VRB03KT P6SM OVC008
     FM051600 13013KT P6SM OVC025 PROB30 0521/0524 3SM +TSRA
      OVC025CB
     FM060000 13015KT P6SM OVC020 PROB30 0602/0606 5SM SHRA OVC015=

USA.gov is the U.S. government's official web portal to all federal, state and local government web resources and services.